Rogers, AR

12:10 AM CDT on October 23, 2017 (GMT -0500)
Rogers Municipal-Carter

Weather History for KROG - March, 2014

Change the Weather History Date:

Thursday, March 6, 2014

  Actual Average Record
Temperature  
Mean Temperature 41 °F -  
Max Temperature 52 °F 51 °F 79 °F (2009)
Min Temperature 30 °F 31 °F 21 °F (2003)
Degree Days  
Heating Degree Days 24    
Moisture  
Dew Point 25 °F    
Average Humidity 57    
Maximum Humidity 88    
Minimum Humidity 28    
Precipitation  
Precipitation 0.00 in - - ()
Sea Level Pressure  
Sea Level Pressure 30.14 in    
Wind  
Wind Speed 4 mph (NNE)    
Max Wind Speed 7 mph    
Max Gust Speed -    
Visibility 10 miles    
Events      
Averages and records for this station are not official NWS values.
T = Trace of Precipitation, MM = Missing Value Source: NWS Daily Summary

Daily Weather History Graph

Daily Weather History Graph

Search for Another Location

Airport or City:

Trip Planner

Search our weather history database for the weather conditions in past years. The results will help you decide how hot, cold, wet, or windy it might be!

Date:

Astronomy

Mar. 06, 2014 Rise Set
Actual Time 6:40 AM CST 6:15 PM CST
Civil Twilight 6:14 AM CST 6:41 PM CST
Nautical Twilight 5:44 AM CST 7:11 PM CST
Astronomical Twilight 5:14 AM CST 7:41 PM CST
Moon 9:58 AM CST (3/6) No Moon Set
Length of Visible Light 12h 27m
Length of Day
11h 35m
Waxing Crescent, 32% of the Moon is Illuminated
Mar 6
Waxing Crescent
Mar 8
First Quarter
Mar 16
Full
Mar 23
Last Quarter
Mar 30
New

Hourly Weather History & Observations

Time (CST) Temp. Windchill Dew Point Humidity Pressure Visibility Wind Dir Wind Speed Gust Speed Precip Events Conditions
12:57 AM 37.0 °F 33.3 °F 28.0 °F 70% 30.20 in 10.0 mi North 4.6 mph - N/A   Overcast
1:57 AM 36.0 °F 32.1 °F 28.0 °F 73% 30.20 in 10.0 mi North 4.6 mph - N/A   Overcast
2:57 AM 35.1 °F 32.2 °F 28.0 °F 76% 30.18 in 10.0 mi North 3.5 mph - N/A   Overcast
3:57 AM 34.0 °F 29.8 °F 27.0 °F 75% 30.17 in 10.0 mi NNW 4.6 mph - N/A   Overcast
4:57 AM 32.0 °F 28.7 °F 27.0 °F 82% 30.16 in 10.0 mi NNW 3.5 mph - N/A   Overcast
5:57 AM 30.0 °F 24.1 °F 27.0 °F 88% 30.19 in 8.0 mi NW 5.8 mph - N/A   Mostly Cloudy
6:57 AM 30.0 °F 26.5 °F 27.0 °F 88% 30.21 in 6.0 mi North 3.5 mph - N/A   Clear
7:57 AM 32.0 °F 27.5 °F 27.0 °F 82% 30.22 in 8.0 mi NE 4.6 mph - N/A   Clear
8:57 AM 36.0 °F 31.1 °F 26.1 °F 67% 30.23 in 10.0 mi East 5.8 mph - N/A   Clear
9:57 AM 37.9 °F - 26.1 °F 62% 30.22 in 10.0 mi Calm Calm - N/A   Clear
10:57 AM 43.0 °F 40.3 °F 23.0 °F 45% 30.19 in 10.0 mi Variable 4.6 mph - N/A   Clear
11:57 AM 45.0 °F 41.8 °F 23.0 °F 42% 30.18 in 10.0 mi North 5.8 mph - N/A   Clear
12:57 PM 46.9 °F - 25.0 °F 42% 30.16 in 10.0 mi Variable 4.6 mph - N/A   Clear
1:57 PM 48.9 °F - 24.1 °F 38% 30.14 in 10.0 mi WSW 6.9 mph - N/A   Clear
2:57 PM 50.0 °F - 23.0 °F 35% 30.11 in 10.0 mi Calm Calm - N/A   Clear
3:57 PM 52.0 °F - 23.0 °F 32% 30.10 in 10.0 mi Calm Calm - N/A   Clear
4:57 PM 52.0 °F - 21.0 °F 30% 30.09 in 10.0 mi SW 4.6 mph - N/A   Clear
5:57 PM 52.0 °F - 19.9 °F 28% 30.08 in 10.0 mi Calm Calm - N/A   Clear
6:57 PM 45.0 °F 41.8 °F 21.9 °F 40% 30.07 in 10.0 mi SE 5.8 mph - N/A   Clear
7:57 PM 43.0 °F 39.5 °F 23.0 °F 45% 30.06 in 10.0 mi ESE 5.8 mph - N/A   Clear
8:57 PM 41.0 °F 36.4 °F 24.1 °F 51% 30.06 in 10.0 mi ESE 6.9 mph - N/A   Clear
9:57 PM 39.0 °F 34.8 °F 25.0 °F 57% 30.06 in 10.0 mi ESE 5.8 mph - N/A   Clear
10:57 PM 37.0 °F - 23.0 °F 57% 30.06 in 10.0 mi Calm Calm - N/A   Clear
11:57 PM 34.0 °F 29.8 °F 24.1 °F 67% 30.05 in 10.0 mi SSE 4.6 mph - N/A   Clear